Regional Weather Roundup
Issued by NWS Portland, ME

Current Version | Previous Version | Graphics & Text | Print | Product List | Glossary Off
Versions: 1 2 3 4 5 6 7 8 9 10 11 12 13 14 15 16 17 18 19 20 21 22 23 24 25 26 27 28 29 30 31 32 33 34 35 36 37 38 39 40 41 42 43 44 45 46 47 48 49 50
000 ASUS41 KGYX 230010 RWRGYX WEATHER ROUNDUP FOR MAINE AND NEW HAMPSHIRE NATIONAL WEATHER SERVICE GRAY ME 800 PM EDT SUN OCT 22 2017 MEZ002-005-006-010-012-015-018-020-021-024-026-027-029-230100- MAINE CITY SKY/WX TMP DP RH WIND PRES REMARKS PORTLAND CLOUDY 54 49 83 E8 30.44S 6HR MIN TEMP: 53; 6HR MAX TEMP: 59; SANFORD CLOUDY 53 51 93 E6 30.43F BAR HARBOR CLEAR 51 46 83 E3 30.46F WISCASSET CLOUDY 49 45 86 CALM 30.45S 6HR MIN TEMP: 49; 6HR MAX TEMP: 64; ROCKLAND MOCLDY 52 48 86 E7 30.44F FRYEBURG NOT AVBL LEWISTONAUBURN MOCLDY 52 46 82 SE5 30.44S AUGUSTA CLOUDY 52 43 71 S6 30.45R 6HR MIN TEMP: 52; 6HR MAX TEMP: 65; WATERVILLE CLEAR 51 44 77 S3 30.41S BANGOR PTCLDY 51 37 58 SE6 30.45S 6HR MIN TEMP: 50; 6HR MAX TEMP: 65; 6HR PCP: TRACE; GREENVILLE N/A 47 37 68 SE7 30.39S 6HR MIN TEMP: 47; 6HR MAX TEMP: 57; MILLINOCKET NOT AVBL HOULTON CLEAR 50 31 48 SE7 30.42F 6HR MIN TEMP: 47; 6HR MAX TEMP: 58; PRESQUE ISLE CLEAR 47 32 56 CALM 30.42F 6HR MIN TEMP: 47; 6HR MAX TEMP: 55; FRENCHVILLE CLOUDY 46 24 42 SE10 30.39F 6HR MIN TEMP: 45; 6HR MAX TEMP: 50; CARIBOU CLEAR 48 30 49 SE7 30.40F 6HR MIN TEMP: 48; 6HR MAX TEMP: 53; $$ NHZ002-005-008-009-011-012-014-230100- NEW HAMPSHIRE CITY SKY/WX TMP DP RH WIND PRES REMARKS PORTSMOUTH CLOUDY 55 54 95 NE6 30.40S FOG ROCHESTER CLOUDY 54 50 86 E5 30.42S 6HR MIN TEMP: 54; 6HR MAX TEMP: 64; NASHUA CLOUDY 56 54 93 E5 30.42R MANCHESTER CLOUDY 56 53 90 E6 30.40S 6HR MIN TEMP: 56; 6HR MAX TEMP: 74; CONCORD PTCLDY 55 52 89 SE3 30.41R 6HR MIN TEMP: 55; 6HR MAX TEMP: 74; LACONIA CLOUDY 57 52 83 NE8 30.41R PLYMOUTH FAIR 52 50 92 CALM 30.40S BERLIN CLEAR 49 45 86 CALM 30.37F 6HR MIN TEMP: 47; 6HR MAX TEMP: 71; WHITEFIELD CLOUDY 50 46 86 CALM 30.35S 6HR MIN TEMP: 50; 6HR MAX TEMP: 74; JAFFREY CLOUDY 59 55 87 CALM 30.40R 6HR MIN TEMP: 59; 6HR MAX TEMP: 77; KEENE PTCLDY 52 43 71 CALM 30.37R LEBANON CLEAR 55 51 86 CALM 30.35R 6HR MIN TEMP: 54; 6HR MAX TEMP: 76; MT WASHINGTON MOCLDY 46 25 42 SW24 N/A 6HR MIN TEMP: 47; 6HR MAX TEMP: 51; $$ VTZ005-007-008-230100- VERMONT CITY SKY/WX TMP DP RH WIND PRES REMARKS ST JOHNSBURY N/A 57 48 72 MISG 30.33R BURLINGTON MOCLDY 68 42 38 S9 30.27S $$ MAZ007-012-024-CTZ003-RIZ002-NYZ038-NYZ072-230100- SOUTHERN NEW ENGLAND AND NY CITY SKY/WX TMP DP RH WIND PRES REMARKS BOSTON CLOUDY 56 55 97 NE7 30.41S WORCESTER PTCLDY 59 52 77 E6 30.40R NANTUCKET PTCLDY 55 55 100 S7 30.41S PROVIDENCE CLOUDY 60 57 89 CALM 30.38S HARTFORD PTCLDY 62 47 57 S6 30.36R ALBANY MOCLDY 65 44 46 S6 30.32R NEW YORK CITY MOCLDY 67 53 61 SE6 30.36R $$ ANZ081-ANZ082-ANZ150-NHZ014-MEZ023>029-230100- COASTAL MARINE OBSERVATIONS STATION/POSITION TIME TEMP WIND PRES WAVE AIR SEA DIR/SP/G HT/PER (UTC) (F) (DEG/KT/KT) (MB) (FT/S) MOUNT DESERT ROC 0000 55 90/ 14/ 15 1031.0F MATINICUS ROCK 2300 54 90/ 16/ 17 1030.2S ISLE OF SHOALS 2300 55 40/ 12/ 14 1029.3S JEFFREYS LEDGE 2336 58 N/A 2/ 8 GEORGES BANK BUO 2250 60 60 1030.8 2/ 9 $$ .............KEY.............. WCI - WIND CHILL TC - TEMPERATURE IN CELSIUS VSB - VISIBILITY IN MILES HX - HEAT INDEX FAIR- INDICATES FEW OR NO CLOUDS BELOW 12,000 FT, WITH NO SIGNIFICANT WEATHER AND/OR OBSTRUCTIONS TO VISIBILITY.

USA.gov is the U.S. government's official web portal to all federal, state and local government web resources and services.